This is the latest recevied weather packets stored in our database for station/object DL9GRB-13. If no packets are shown the sender has not sent any weather packets the latest 10 day(s).
| Time | Temp. | Humidity | Pressure | Rain* | Wind** | Luminosity | Snow |
|---|---|---|---|---|---|---|---|
| 1777820647 | 19.44° C | 63% | 1007.9 hPa | 0 mm | - | 209 W/m² | - |
| 1777820467 | 19.44° C | 63% | 1007.9 hPa | 0 mm | - | 192 W/m² | - |
| 1777820287 | 20° C | 63% | 1008.1 hPa | 0 mm | - | 163 W/m² | - |
| 1777820107 | 20° C | 62% | 1008.3 hPa | 0 mm | - | 174 W/m² | - |
| 1777819927 | 20° C | 62% | 1008.1 hPa | 0 mm | - | 174 W/m² | - |
| 1777819747 | 20° C | 62% | 1008.3 hPa | 0 mm | - | 173 W/m² | - |
| 1777819567 | 20.56° C | 62% | 1008.2 hPa | 0 mm | - | 187 W/m² | - |
| 1777819387 | 20.56° C | 61% | 1008.4 hPa | 0 mm | - | 209 W/m² | - |
| 1777819207 | 20.56° C | 61% | 1008.4 hPa | 0 mm | - | 179 W/m² | - |
| 1777819027 | 21.11° C | 60% | 1008.4 hPa | 0 mm | - | 172 W/m² | - |
| 1777818847 | 21.11° C | 60% | 1008.5 hPa | 0 mm | - | 170 W/m² | - |
| 1777818667 | 21.11° C | 61% | 1008.4 hPa | 0 mm | - | 229 W/m² | - |
| 1777818487 | 21.11° C | 60% | 1008.4 hPa | 0 mm | - | 358 W/m² | - |
| 1777818307 | 21.11° C | 59% | 1008.6 hPa | 0 mm | - | 535 W/m² | - |
| 1777818127 | 21.11° C | 59% | 1008.7 hPa | 0 mm | - | 521 W/m² | - |
| 1777817947 | 21.11° C | 60% | 1008.5 hPa | 0 mm | - | 557 W/m² | - |
| 1777817767 | 20.56° C | 60% | 1008.8 hPa | 0 mm | - | 535 W/m² | - |
| 1777817587 | 21.11° C | 58% | 1008.8 hPa | 0 mm | - | 377 W/m² | - |
| 1777817407 | 21.67° C | 57% | 1008.9 hPa | 0 mm | - | 408 W/m² | - |
| 1777817227 | 21.67° C | 58% | 1008.9 hPa | 0 mm | - | 245 W/m² | - |
| 1777817047 | 21.67° C | 59% | 1008.9 hPa | 0 mm | - | 640 W/m² | - |
| 1777816867 | 21.11° C | 61% | 1008.9 hPa | 0 mm | - | 660 W/m² | - |
| 1777816687 | 21.11° C | 60% | 1009 hPa | 0 mm | - | 611 W/m² | - |
| 1777816507 | 21.11° C | 60% | 1008.9 hPa | 0 mm | - | 571 W/m² | - |
| 1777816327 | 20.56° C | 61% | 1008.9 hPa | 0 mm | - | 556 W/m² | - |
* Rain latest hour (hover to see other rain measurements)
** Current wind speed in m/s (hover to see current wind gust speed)